User: anonymous   Login
Location: Caltech
(34.1382°N, 118.1253°W)
Time: 08:21:01
(UTC-08:00)
Language:

Cosmos 676 Rocket - Orbit

View from above orbital plane
View from above orbital plane
View from above satellite
View from above satellite

Ground track
Ground track

The orbit data is extracted from the following two-line orbital elements,

1 07434U 74071B   15027.50386478  .00000248  00000-0  93529-4 0  4174
2 07434 074.0486 014.5797 0019796 143.2730 355.6448 14.36392768111540
Epoch (UTC): 27 January 2015 12:05:33
Eccentricity: 0.0019796
inclination: 74.0486°
perigee height: 756 km
apogee height: 784 km
right ascension of ascending node: 14.5797°
argument of perigee: 143.2730°
revolutions per day: 14.36392768
mean anomaly at epoch: 355.6448°
orbit number at epoch: 11154

The dashed part of the orbit path shows where the satellite is in the earth's shadow,  

DLR